Hourly Data Report for September 11, 2017

All times are specified in Local Standard Time (LST). Add 1 hour to adjust for Daylight Saving Time where and when it is observed.

FREDERICTON
NEW BRUNSWICK

45°52'08.000" N
66°32'14.000" W
20.70 m
8101505
71700
YFC

Related Data

No related data is available for this station

Download Data

Hourly Data (September 2017)
Hourly Data Report for September 11, 2017
Temp Definition
°C
Dew Point Temp Definition
°C
Rel Hum Definition
%
Wind Dir Definition
10's deg

Wind Spd Definition
km/h
Visibility Definition
km
Stn Press Definition
kPa
Hmdx Definition


Wind Chill Definition


Weather Definition


TIME
00:00 Legend Double Dagger 13.5 8.4 71 30 9 16.1 101.86     Rain
01:00 Legend Double Dagger 13.3 8.4 72 29 13 16.1 101.78     LegendNANA
02:00 Legend Double Dagger 13.8 8.1 68 30 13 16.1 101.68     LegendNANA
03:00 Legend Double Dagger 13.9 8.4 69 30 13 16.1 101.63     LegendNANA
04:00 Legend Double Dagger 13.7 8.9 72 35 8 16.1 101.66     LegendNANA
05:00 Legend Double Dagger 12.7 9.8 83   0 16.1 101.65     LegendNANA
06:00 Legend Double Dagger 12.1 9.7 85 22 5 16.1 101.63     LegendNANA
07:00 Legend Double Dagger 12.9 9.7 81 LegendMM 4 16.1 101.69     LegendNANA
08:00 Legend Double Dagger 15.3 10.3 72 32 17 16.1 101.69     LegendNANA
09:00 Legend Double Dagger 17.5 10.7 64 35 18 16.1 101.67     LegendNANA
10:00 Legend Double Dagger 19.3 11.5 60 36 17 16.1 101.65     LegendNANA
11:00 Legend Double Dagger 19.8 11.3 58 35 15 16.1 101.65     LegendNANA
12:00 Legend Double Dagger 21.5 11.1 51 33 13 16.1 101.59     LegendNANA
13:00 Legend Double Dagger 22.8 11.3 48 1 15 16.1 101.51 25   LegendNANA
14:00 Legend Double Dagger 23.6 11.9 47 1 21 16.1 101.40 26   LegendNANA
15:00 Legend Double Dagger 24.3 10.6 42 35 15 16.1 101.34 26   LegendNANA
16:00 Legend Double Dagger 24.3 10.8 42 35 11 16.1 101.28 26   LegendNANA
17:00 Legend Double Dagger 23.6 11.8 47 4 11 16.1 101.24 26   LegendNANA
18:00 Legend Double Dagger 21.7 13.0 57 14 5 16.1 101.25     LegendNANA
19:00 Legend Double Dagger 18.7 12.6 68   0 16.1 101.27     LegendNANA
20:00 Legend Double Dagger 15.1 12.8 86 23 4 16.1 101.25     LegendNANA
21:00 Legend Double Dagger 14.1 12.2 88 8 8 16.1 101.23     LegendNANA
22:00 Legend Double Dagger 13.5 12.3 92 35 5 16.1 101.29     LegendNANA
23:00 Legend Double Dagger 12.6 11.3 91 1 8 16.1 101.34     LegendNANA

Notes on Data Quality.

Legend

  • E = Estimated
  • M = Missing
  • NA = Not Available
  • ‡ = Partner data that is not subject to review by the National Climate Archives
Date modified: